Location: Albuquerque Trailhead
(34.7934°N, 106.3736°W)
Time: 00:01:32
(UTC+00:00)

Cosmos 1606 - Pass Details

Date: 20 June 2021
Orbit: 501 x 527 km, 82.5° (Epoch: 27 July)

Event Time Altitude Azimuth Distance (km) Brightness Sun altitude
Rises 08:54:22 0° 350° (N) 2,637 7.1 -26.5°
Reaches altitude 10° 08:56:31 10° 348° (NNW) 1,742 6.0 -26.3°
Enters shadow 08:58:45 33° 338° (NNW) 880 4.1 -26.0°
